Powrót do katalogu

USA 72

AktywnyMilitariaHEO
NORAD 21775·PAYLOAD·🇺🇸 United States

Wystrzelony Nov 8, 1991 z Vandenberg Space Force Base

Loading…

Następne Przeloty (najbliższe 24 godziny)

TLE

ŚwieżeSource: Space-Track

Epoka: Sep 14, 2026, 09:19 UTC

1 21775U 91076A   26257.38831059  .00000015  00000-0  00000-0 0  9990
2 21775  63.3473 173.7375 3333135 273.0891  50.0432  5.53396010 47494

Śledź USA 72 w czasie rzeczywistym z AllMySat

Download on the App Store